EW3084 Weather Reports


Display with metric or nautical units.
time (UTC)temp
F
wind
direction
speed
MPH
gust
MPH
rain 1hr
in
rain 24hr
in
rain mn
in
humidity
%
barometer
mb
20260510144719 48 286 6.0 16.0 0.00 0.00 0.00 71
20260510143603 49 285 6.0 14.0 0.00 0.00 0.00 69
20260510142917 49 290 9.0 17.0 0.00 0.00 0.00 67
20260510141803 51 276 7.0 14.0 0.00 0.00 0.00 60
20260510140903 51 269 10.0 19.0 0.00 0.00 0.00 56
20260510140005 52 283 7.0 18.0 0.00 0.00 0.00 54
20260510135403 52 273 7.0 20.0 0.00 0.00 0.00 54
20260510134503 52 276 8.0 20.0 0.00 0.00 0.00 52
20260510133603 54 276 9.0 19.0 0.00 0.00 0.00 48
20260510132917 55 271 6.0 14.0 0.00 0.00 0.00 43
20260510131803 56 275 3.0 6.0 0.00 0.00 0.00 40
20260510131116 56 277 3.0 6.0 0.00 0.00 0.00 41
20260510130003 57 267 4.0 13.0 0.00 0.00 0.00 39
20260510125403 57 259 4.0 13.0 0.00 0.00 0.00 38
20260510124503 57 269 3.0 12.0 0.00 0.00 0.00 39
20260510123605 57 274 3.0 6.0 0.00 0.00 0.00 38
20260510122705 56 282 3.0 7.0 0.00 0.00 0.00 41
20260510121803 56 263 3.0 7.0 0.00 0.00 0.00 40
20260510120903 56 276 3.0 9.0 0.00 0.00 0.00 42
20260510120003 56 279 5.0 11.0 0.00 0.00 0.00 40
20260510115403 56 273 4.0 9.0 0.00 0.00 0.00 40
20260510114503 56 270 4.0 7.0 0.00 0.00 0.00 41
20260510113603 55 270 5.0 10.0 0.00 0.00 0.00 40
20260510112703 55 269 3.0 10.0 0.00 0.00 0.00 41
20260510111803 55 269 5.0 12.0 0.00 0.00 0.00 42
20260510110903 55 267 4.0 12.0 0.00 0.00 0.00 40
20260510110003 55 275 7.0 12.0 0.00 0.00 0.00 41
20260510105403 55 272 7.0 15.0 0.00 0.00 0.00 38
20260510104503 56 266 6.0 11.0 0.00 0.00 0.00 38
20260510103817 56 268 5.0 14.0 0.00 0.00 0.00 38
20260510102703 56 260 4.0 11.0 0.00 0.00 0.00 39
20260510101803 56 251 3.0 9.0 0.00 0.00 0.00 40
20260510100903 56 275 4.0 12.0 0.00 0.00 0.00 41
20260510100218 56 273 4.0 11.0 0.00 0.00 0.00 42
20260510095403 56 266 4.0 15.0 0.00 0.00 0.00 40
20260510094503 56 270 3.0 13.0 0.00 0.00 0.00 40
20260510093603 56 255 4.0 11.0 0.00 0.00 0.00 39
20260510092703 56 266 5.0 13.0 0.00 0.00 0.00 40
20260510091803 55 278 3.0 10.0 0.00 0.00 0.00 42
20260510090903 55 272 3.0 8.0 0.00 0.00 0.00 42
20260510090003 55 271 4.0 10.0 0.00 0.00 0.00 42
20260510085403 55 269 6.0 12.0 0.00 0.00 0.00 40
20260510084716 55 280 5.0 12.0 0.00 0.00 0.00 39
20260510083603 55 269 4.0 10.0 0.00 0.00 0.00 39
20260510082703 55 262 4.0 13.0 0.00 0.00 0.00 41
20260510081803 54 176 0.0 6.0 0.00 0.00 0.00 46
20260510080903 54 168 0.0 3.0 0.00 0.00 0.00 52
20260510080217 54 184 1.0 6.0 0.00 0.00 0.00 54
20260510075403 53 338 1.0 4.0 0.00 0.00 0.00 55
20260510074716 52 80 1.0 3.0 0.00 0.00 0.00 55
20260510073603 52 172 2.0 5.0 0.00 0.00 0.00 57
20260510072703 51 129 1.0 4.0 0.00 0.00 0.00 57
20260510071803 50 133 1.0 4.0 0.00 0.00 0.00 59
20260510070903 49 109 1.0 4.0 0.00 0.00 0.00 62
20260510070003 48 89 0.0 4.0 0.00 0.00 0.00 63
20260510065403 48 89 0.0 3.0 0.00 0.00 0.00 65
20260510064503 47 89 0.0 3.0 0.00 0.00 0.00 67
20260510063819 46 89 1.0 3.0 0.00 0.00 0.00 67
20260510062703 45 89 1.0 4.0 0.00 0.00 0.00 71
20260510061803 45 89 1.0 3.0 0.00 0.00 0.00 71
20260510060903 44 0 0.0 0.0 0.00 0.00 0.00 74
20260510060003 42 89 0.0 1.0 0.00 0.00 0.00 77
20260510055403 41 89 0.0 1.0 0.00 0.00 0.00 78
20260510054503 40 0 0.0 0.0 0.00 0.00 0.00 81
20260510053603 39 0 0.0 0.0 0.00 0.00 0.00 83
20260510052703 39 0 0.0 0.0 0.00 0.00 0.00 85
20260510051803 38 0 0.0 0.0 0.00 0.00 0.00 86
20260510051117 38 89 0.0 2.0 0.00 0.00 0.00 86
20260510050003 37 0 0.0 0.0 0.00 0.00 0.00 86
20260510045403 37 0 0.0 0.0 0.00 0.00 0.00 86
20260510044503 37 89 0.0 1.0 0.00 0.00 0.00 86
20260510043603 36 0 0.0 0.0 0.00 0.00 0.00 87
20260510042703 36 89 0.0 1.0 0.00 0.00 0.00 86
20260510041803 35 89 0.0 1.0 0.00 0.00 0.00 85
20260510040903 35 0 0.0 0.0 0.00 0.00 0.00 85
20260510040003 35 0 0.0 0.0 0.00 0.00 0.00 85
20260510035403 35 0 0.0 0.0 0.00 0.00 0.00 84
20260510034719 35 0 0.0 0.0 0.00 0.00 0.00 84
20260510033818 35 0 0.0 0.0 0.00 0.00 0.00 83
20260510032703 35 0 0.0 0.0 0.00 0.00 0.00 83
20260510031803 36 0 0.0 0.0 0.00 0.00 0.00 82
20260510030903 36 89 0.0 1.0 0.00 0.00 0.00 81
20260510030003 36 0 0.0 0.0 0.00 0.00 0.00 81
20260510025403 36 0 0.0 0.0 0.00 0.00 0.00 81
20260510024718 36 0 0.0 0.0 0.00 0.00 0.00 80
20260510023817 36 0 0.0 0.0 0.00 0.00 0.00 80
20260510022703 36 0 0.0 0.0 0.00 0.00 0.00 79
20260510022016 37 0 0.0 0.0 0.00 0.00 0.00 78
20260510020903 37 0 0.0 0.0 0.00 0.00 0.00 78
20260510020003 37 89 0.0 1.0 0.00 0.00 0.00 77
20260510015403 38 0 0.0 0.0 0.00 0.00 0.00 77
20260510014503 38 0 0.0 0.0 0.00 0.00 0.00 76
20260510013603 38 89 0.0 2.0 0.00 0.00 0.00 76
20260510012703 38 0 0.0 0.0 0.00 0.00 0.00 75
20260510011803 38 89 0.0 1.0 0.00 0.00 0.00 74
20260510010903 38 0 0.0 0.0 0.00 0.00 0.00 74
20260510010003 38 0 0.0 0.0 0.00 0.00 0.00 73
20260510005403 39 0 0.0 0.0 0.00 0.00 0.00 73
20260510004503 39 0 0.0 0.0 0.00 0.00 0.00 73
20260510003603 39 0 0.0 0.0 0.00 0.00 0.00 72
20260510002703 39 89 0.0 1.0 0.00 0.00 0.00 71
20260510001803 39 89 0.0 1.0 0.00 0.00 0.00 71
20260510000903 40 89 0.0 2.0 0.00 0.00 0.00 70
20260510000003 40 0 0.0 0.0 0.00 0.00 0.00 69
20260509235403 40 0 0.0 0.0 0.00 0.00 0.00 68
20260509234503 40 0 0.0 0.0 0.00 0.00 0.00 68
20260509233603 41 89 0.0 2.0 0.00 0.00 0.00 67
20260509232703 41 89 0.0 2.0 0.00 0.00 0.00 67
20260509232019 41 0 0.0 0.0 0.00 0.00 0.00 67
20260509231118 41 89 0.0 1.0 0.00 0.00 0.00 65
20260509230003 42 93 0.0 1.0 0.00 0.00 0.00 64
20260509225403 42 91 0.0 1.0 0.00 0.00 0.00 64
20260509224503 42 0 0.0 0.0 0.00 0.00 0.00 64
20260509223603 43 0 0.0 0.0 0.00 0.00 0.00 62
20260509222703 43 85 0.0 2.0 0.00 0.00 0.00 62
20260509221803 44 138 0.0 3.0 0.00 0.00 0.00 62
20260509220903 44 121 1.0 6.0 0.00 0.00 0.00 61
20260509220003 44 123 1.0 4.0 0.00 0.00 0.00 60
20260509215403 44 132 0.0 5.0 0.00 0.00 0.00 60
20260509214503 44 112 0.0 3.0 0.00 0.00 0.00 59
20260509213603 45 119 1.0 5.0 0.00 0.00 0.00 57
20260509212703 45 123 0.0 3.0 0.00 0.00 0.00 56
20260509211803 46 118 0.0 3.0 0.00 0.00 0.00 57
20260509210903 46 122 1.0 5.0 0.00 0.00 0.00 56
20260509210217 46 104 0.0 4.0 0.00 0.00 0.00 56
20260509205403 46 108 0.0 2.0 0.00 0.00 0.00 55
20260509204503 46 70 0.0 2.0 0.00 0.00 0.00 54
20260509203603 47 76 0.0 2.0 0.00 0.00 0.00 53
20260509202703 48 95 0.0 4.0 0.00 0.00 0.00 51
20260509202018 48 91 0.0 4.0 0.00 0.00 0.00 49
20260509200903 49 111 1.0 5.0 0.00 0.00 0.00 47
20260509200003 49 77 0.0 3.0 0.00 0.00 0.00 46
20260509195403 50 121 0.0 2.0 0.00 0.00 0.00 45
20260509194715 50 107 0.0 2.0 0.00 0.00 0.00 43
20260509193603 51 153 1.0 4.0 0.00 0.00 0.00 42
20260509192703 51 137 0.0 3.0 0.00 0.00 0.00 42
20260509191803 52 135 1.0 4.0 0.00 0.00 0.00 39
20260509191117 52 136 1.0 3.0 0.00 0.00 0.00 39
20260509190003 53 152 0.0 2.0 0.00 0.00 0.00 38
20260509185403 53 149 1.0 3.0 0.00 0.00 0.00 37
20260509184503 54 126 1.0 5.0 0.00 0.00 0.00 34
20260509183603 54 130 1.0 4.0 0.00 0.00 0.00 35
20260509182918 55 140 2.0 7.0 0.00 0.00 0.00 33
20260509181803 56 145 2.0 7.0 0.00 0.00 0.00 33
20260509180903 57 147 2.0 6.0 0.00 0.00 0.00 31
20260509180003 58 165 3.0 9.0 0.00 0.00 0.00 30
20260509175403 59 167 2.0 8.0 0.00 0.00 0.00 30
20260509174503 60 150 2.0 6.0 0.00 0.00 0.00 29
20260509173603 60 159 3.0 10.0 0.00 0.00 0.00 28
20260509172703 60 174 3.0 11.0 0.00 0.00 0.00 28
20260509172017 61 178 3.0 11.0 0.00 0.00 0.00 27
20260509171116 61 150 2.0 9.0 0.00 0.00 0.00 26
20260509170003 61 152 1.0 5.0 0.00 0.00 0.00 27
20260509165403 61 158 2.0 6.0 0.00 0.00 0.00 27
20260509164719 60 157 3.0 6.0 0.00 0.00 0.00 27
20260509163818 61 186 3.0 9.0 0.00 0.00 0.00 26
20260509162703 61 188 2.0 7.0 0.00 0.00 0.00 26
20260509161803 62 177 2.0 7.0 0.00 0.00 0.00 25
20260509161116 62 179 3.0 9.0 0.00 0.00 0.00 23
20260509160219 62 161 2.0 7.0 0.00 0.00 0.00 21
20260509155403 62 190 2.0 6.0 0.00 0.00 0.00 21
20260509154503 62 155 3.0 9.0 0.00 0.00 0.00 21
20260509153603 62 160 3.0 10.0 0.00 0.00 0.00 21
20260509152703 63 203 2.0 5.0 0.00 0.00 0.00 22
20260509151803 62 177 3.0 9.0 0.00 0.00 0.00 21
20260509150903 63 176 3.0 9.0 0.00 0.00 0.00 21
20260509150219 62 231 2.0 8.0 0.00 0.00 0.00 21
20260509145403 62 176 3.0 8.0 0.00 0.00 0.00 19